N6ROE Weather Reports


Display with metric or nautical units.
time (UTC)temp
F
wind
direction
speed
MPH
gust
MPH
rain 1hr
in
rain 24hr
in
rain mn
in
humidity
%
barometer
mb
20260510070516 73 170 2.0 3.0 0.00 0.32 0.00 88 1010.8
20260510065517 73 167 1.0 2.0 0.00 0.32 0.00 87 1010.9
20260510064517 74 191 2.0 3.0 0.00 0.32 0.00 87 1010.8
20260510063517 74 171 2.0 4.0 0.00 0.32 0.00 86 1010.7
20260510062517 74 173 3.0 5.0 0.00 0.32 0.00 85 1010.6
20260510061517 74 154 2.0 4.0 0.00 0.32 0.00 84 1010.7
20260510060518 75 174 2.0 3.0 0.00 0.32 0.00 84 1010.7
20260510055518 75 188 2.0 3.0 0.00 0.32 0.00 83 1010.7
20260510054518 75 190 2.0 4.0 0.00 0.32 0.00 83 1010.7
20260510053559 75 170 2.0 4.0 0.00 0.32 0.00 82 1010.8
20260510052518 76 167 2.0 3.0 0.00 0.32 0.00 81 1010.7
20260510051516 76 148 2.0 4.0 0.00 0.32 0.00 80 1010.7
20260510050518 76 122 2.0 4.0 0.00 0.32 0.00 80 1010.6
20260510045516 77 104 2.0 4.0 0.00 0.32 0.32 79 1010.5
20260510044516 77 126 2.0 4.0 0.00 0.32 0.32 78 1010.4
20260510043516 77 144 1.0 4.0 0.00 0.32 0.32 79 1010.4
20260510042516 77 106 2.0 4.0 0.00 0.32 0.32 78 1010.3
20260510041516 76 107 3.0 6.0 0.00 0.32 0.32 79 1010.2
20260510040517 76 52 1.0 4.0 0.00 0.32 0.32 80 1010.1
20260510035517 77 48 2.0 4.0 0.00 0.32 0.32 80 1010.0
20260510034517 77 46 2.0 4.0 0.00 0.32 0.32 79 1010.0
20260510033517 77 35 2.0 4.0 0.00 0.32 0.32 78 1009.9
20260510032517 77 38 4.0 5.0 0.00 0.32 0.32 78 1009.8
20260510031517 78 29 3.0 6.0 0.00 0.32 0.32 78 1009.7
20260510030538 78 38 5.0 6.0 0.00 0.32 0.32 77 1009.6
20260510025519 78 38 3.0 6.0 0.00 0.32 0.32 77 1009.5
20260510024538 78 41 2.0 5.0 0.00 0.32 0.32 77 1009.3
20260510023537 78 54 2.0 4.0 0.00 0.32 0.32 77 1009.3
20260510022536 78 62 2.0 4.0 0.00 0.32 0.32 75 1009.1
20260510021515 78 57 2.0 3.0 0.00 0.32 0.32 77 1009.1
20260510020516 77 46 2.0 4.0 0.00 0.32 0.32 79 1009.1
20260510015516 78 51 2.0 4.0 0.00 0.32 0.32 80 1009.0
20260510014516 78 52 2.0 4.0 0.00 0.32 0.32 80 1009.0
20260510013516 78 56 2.0 4.0 0.00 0.32 0.32 80 1008.8
20260510012516 78 65 2.0 4.0 0.00 0.32 0.32 79 1008.7
20260510011518 78 77 3.0 4.0 0.00 0.32 0.32 77 1008.6
20260510010517 78 74 2.0 4.0 0.00 0.32 0.32 74 1008.4
20260510005517 78 71 3.0 4.0 0.00 0.32 0.32 72 1008.3
20260510004517 78 61 2.0 4.0 0.00 0.32 0.32 72 1008.2
20260510003517 78 48 2.0 5.0 0.00 0.32 0.32 72 1008.1
20260510002517 77 49 2.0 4.0 0.00 0.32 0.32 72 1008.0
20260510001517 77 66 2.0 4.0 0.00 0.32 0.32 72 1008.1
20260510000518 78 61 3.0 7.0 0.00 0.32 0.32 73 1007.9
20260509235518 79 68 3.0 7.0 0.00 0.32 0.32 69 1007.7
20260509234515 77 69 2.0 5.0 0.00 0.32 0.32 66 1007.6
20260509233515 76 57 2.0 5.0 0.00 0.32 0.32 68 1007.7
20260509232515 75 77 3.0 6.0 0.29 0.32 0.32 75 1007.7
20260509231515 74 55 3.0 8.0 0.32 0.32 0.32 81 1007.7
20260509230516 75 58 2.0 3.0 0.32 0.32 0.32 75 1007.6
20260509225516 74 283 4.0 8.0 0.32 0.32 0.32 74 1007.3
20260509224516 74 170 4.0 9.0 0.32 0.32 0.32 68 1007.5
20260509222517 85 70 10.0 25.0 0.03 0.03 0.03 59 1008.0
20260509221517 91 61 5.0 12.0 0.00 0.00 0.00 47 1007.9
20260509220517 90 190 4.0 7.0 0.00 0.00 0.00 46 1007.3
20260509215517 91 186 6.0 9.0 0.00 0.00 0.00 45 1007.3
20260509214517 90 196 6.0 13.0 0.00 0.00 0.00 46 1007.4
20260509213517 90 182 3.0 8.0 0.00 0.00 0.00 47 1007.5
20260509212517 89 192 3.0 8.0 0.00 0.00 0.00 49 1007.6
20260509211538 89 237 4.0 10.0 0.00 0.00 0.00 49 1007.6
20260509210540 89 211 6.0 9.0 0.00 0.00 0.00 50 1007.7
20260509205518 89 223 7.0 11.0 0.00 0.00 0.00 51 1007.9
20260509204518 89 216 5.0 10.0 0.00 0.00 0.00 52 1008.0
20260509203515 88 220 3.0 10.0 0.00 0.00 0.00 53 1008.3
20260509202516 88 196 6.0 12.0 0.00 0.00 0.00 53 1008.4
20260509201537 88 217 6.0 9.0 0.00 0.00 0.00 52 1008.4
20260509200516 88 213 6.0 10.0 0.00 0.00 0.00 53 1008.4
20260509195516 88 222 4.0 10.0 0.00 0.00 0.00 53 1008.6
20260509194536 88 235 3.0 6.0 0.00 0.00 0.00 51 1008.8
20260509193516 87 259 3.0 8.0 0.00 0.00 0.00 54 1009.0
20260509192517 86 252 5.0 8.0 0.00 0.00 0.00 57 1009.3
20260509191516 86 222 4.0 8.0 0.00 0.00 0.00 59 1009.5
20260509190517 87 223 4.0 8.0 0.00 0.00 0.00 60 1009.5
20260509185517 86 231 5.0 7.0 0.00 0.00 0.00 60 1009.6
20260509184517 85 260 5.0 10.0 0.00 0.00 0.00 62 1009.5
20260509183519 85 208 3.0 7.0 0.00 0.00 0.00 64 1009.6
20260509182558 84 238 5.0 11.0 0.00 0.00 0.00 65 1009.8
20260509181518 84 219 6.0 10.0 0.00 0.00 0.00 67 1009.9
20260509180518 84 201 5.0 10.0 0.00 0.00 0.00 68 1009.9
20260509175558 84 203 3.0 8.0 0.00 0.00 0.00 69 1010.2
20260509174518 85 216 3.0 7.0 0.00 0.00 0.00 66 1010.3
20260509173515 84 237 2.0 5.0 0.00 0.00 0.00 69 1010.3
20260509172515 83 268 4.0 7.0 0.00 0.00 0.00 70 1010.4
20260509171515 82 254 1.0 4.0 0.00 0.01 0.00 74 1010.4
20260509170516 81 233 3.0 6.0 0.00 0.01 0.00 76 1010.5
20260509165516 80 244 2.0 3.0 0.00 0.01 0.00 78 1010.6
20260509164536 80 360 2.0 6.0 0.00 0.01 0.00 81 1010.7
20260509163516 79 342 2.0 6.0 0.00 0.01 0.00 81 1010.7
20260509162557 78 245 3.0 7.0 0.00 0.01 0.00 83 1010.4
20260509161517 77 217 4.0 7.0 0.00 0.01 0.00 85 1010.4
20260509160517 75 243 5.0 9.0 0.00 0.01 0.00 96 1010.3
20260509155517 74 238 5.0 10.0 0.00 0.01 0.00 98 1010.4
20260509154517 73 239 7.0 12.0 0.00 0.01 0.00 99 1010.3
20260509153517 73 230 6.0 9.0 0.00 0.01 0.00 100 1010.5
20260509152517 73 260 3.0 5.0 0.00 0.01 0.00 100 1011.0
20260509151519 72 230 2.0 4.0 0.00 0.00 0.00 100 1011.3
20260509150518 72 149 1.0 3.0 0.00 0.00 0.00 100 1011.2
20260509145518 72 223 2.0 3.0 0.00 0.00 0.00 100 1011.3
20260509144518 72 81 0.0 1.0 0.00 0.00 0.00 99 1011.4
20260509143515 72 193 1.0 2.0 0.00 0.00 0.00 100 1011.4
20260509142517 72 118 1.0 2.0 0.00 0.00 0.00 100 1011.4
20260509141516 72 58 0.0 1.0 0.00 0.00 0.00 100 1011.1
20260509140516 72 116 2.0 4.0 0.00 0.00 0.00 100 1010.8
20260509135516 72 36 3.0 6.0 0.00 0.00 0.00 100 1010.4
20260509134516 72 30 3.0 7.0 0.00 0.00 0.00 100 1010.3
20260509133516 72 39 2.0 4.0 0.00 0.00 0.00 100 1010.4
20260509132516 72 35 1.0 3.0 0.00 0.00 0.00 100 1010.3
20260509131517 72 113 2.0 3.0 0.00 0.00 0.00 100 1010.2
20260509130517 72 148 1.0 3.0 0.00 0.00 0.00 100 1010.2
20260509125517 72 101 1.0 2.0 0.00 0.00 0.00 100 1010.4
20260509124517 72 114 1.0 3.0 0.00 0.00 0.00 100 1010.5
20260509123517 72 124 2.0 4.0 0.00 0.00 0.00 100 1010.4
20260509122518 72 98 2.0 4.0 0.00 0.00 0.00 100 1010.6
20260509121538 72 82 3.0 5.0 0.00 0.00 0.00 100 1010.6
20260509120518 72 63 2.0 5.0 0.00 0.00 0.00 100 1010.7
20260509115515 72 20 2.0 7.0 0.00 0.00 0.00 100 1011.0
20260509114516 72 10 4.0 9.0 0.00 0.00 0.00 100 1010.8
20260509113515 72 9 3.0 7.0 0.00 0.00 0.00 100 1010.6
20260509112515 72 4 5.0 7.0 0.00 0.00 0.00 100 1010.3
20260509111516 72 23 2.0 4.0 0.00 0.00 0.00 99 1009.9
20260509110517 72 70 1.0 3.0 0.00 0.00 0.00 99 1009.8
20260509105516 72 94 1.0 3.0 0.00 0.00 0.00 99 1009.9
20260509104516 72 3 3.0 5.0 0.00 0.00 0.00 99 1009.8
20260509103536 72 21 3.0 5.0 0.00 0.00 0.00 99 1010.0
20260509102517 72 32 2.0 4.0 0.00 0.00 0.00 99 1010.2
20260509101517 72 66 2.0 4.0 0.00 0.00 0.00 99 1010.0
20260509100517 72 68 2.0 4.0 0.00 0.00 0.00 99 1009.9
20260509095537 72 32 3.0 5.0 0.00 0.00 0.00 99 1009.8
20260509094518 72 46 2.0 5.0 0.00 0.00 0.00 99 1009.9
20260509093517 72 31 2.0 4.0 0.00 0.00 0.00 99 1009.6
20260509092516 72 43 3.0 4.0 0.00 0.00 0.00 99 1009.3
20260509091516 72 39 2.0 3.0 0.00 0.00 0.00 98 1009.5
20260509090516 72 73 1.0 2.0 0.00 0.00 0.00 98 1009.3
20260509085517 72 131 1.0 3.0 0.00 0.00 0.00 98 1009.1
20260509084517 72 99 1.0 2.0 0.00 0.00 0.00 98 1009.2
20260509083536 72 153 2.0 3.0 0.00 0.00 0.00 98 1009.3
20260509082516 72 146 2.0 3.0 0.00 0.00 0.00 98 1009.2
20260509081536 72 157 3.0 5.0 0.00 0.00 0.00 98 1009.5
20260509080516 72 157 2.0 4.0 0.00 0.00 0.00 97 1009.5
20260509075517 72 156 2.0 4.0 0.00 0.00 0.00 97 1009.4
20260509074517 72 156 3.0 6.0 0.00 0.00 0.00 97 1009.5
20260509073538 73 152 5.0 10.0 0.00 0.00 0.00 97 1009.2
20260509072537 73 162 3.0 7.0 0.00 0.00 0.00 97 1009.4
20260509071517 73 156 3.0 6.0 0.00 0.00 0.00 96 1009.4